,,Stat6,,Stat2,,Stat8,,Stat9,,Stat10,,Wind1,,Wind1,
time,status,PA1M_AVG,status,PR1M_SUM,status,RH1M_AVG,status,SR1M_AVG,status,TA1M_AVG,status,W1dAve1m,status,W1sAve1m,
2009-04-27, 07:00:01,VALID,918.392,VALID,0,VALID,100,VALID,145.611,VALID,18.42,VALID,100,VALID,0,
2009-04-27, 07:01:00,VALID,918.408,VALID,0,VALID,100,VALID,149.262,VALID,18.4295,VALID,107,VALID,0,
2009-04-27, 07:02:00,VALID,918.413,VALID,0,VALID,100,VALID,153.218,VALID,18.4879,VALID,106,VALID,0,
2009-04-27, 07:03:00,VALID,918.419,VALID,0,VALID,100,VALID,157.039,VALID,18.5268,VALID,120,VALID,0.125182,
2009-04-27, 07:04:00,VALID,918.425,VALID,0,VALID,100,VALID,160.825,VALID,18.5303,VALID,142,VALID,0.00533537,
2009-04-27, 07:05:00,VALID,918.431,VALID,0,VALID,100,VALID,164.476,VALID,18.5463,VALID,148,VALID,0.00647866,
2009-04-27, 07:06:00,VALID,918.436,VALID,0,VALID,100,VALID,168.127,VALID,18.6047,VALID,153,VALID,0.00497159,
2009-04-27, 07:07:00,VALID,918.449,VALID,0,VALID,100,VALID,171.438,VALID,18.6971,VALID,152,VALID,0,
2009-04-27, 07:08:00,VALID,918.452,VALID,0,VALID,100,VALID,175.242,VALID,18.85,VALID,152,VALID,0.00111607,
2009-04-27, 07:09:00,VALID,918.479,VALID,0,VALID,100,VALID,179.64,VALID,18.898,VALID,145,VALID,0.0295351,
2009-04-27, 07:10:00,VALID,918.497,VALID,0,VALID,100,VALID,183.614,VALID,18.8526,VALID,142,VALID,0.0328125,
2009-04-27, 07:11:00,VALID,918.524,VALID,0,VALID,100,VALID,187.519,VALID,18.8336,VALID,156,VALID,0.301258,
2009-04-27, 07:12:00,VALID,918.55,VALID,0,VALID,100,VALID,191.442,VALID,18.8012,VALID,156,VALID,0.253711,
2009-04-27, 07:13:00,VALID,918.577,VALID,0,VALID,100,VALID,195.551,VALID,18.7493,VALID,157,VALID,0.426339,
2009-04-27, 07:14:00,VALID,918.598,VALID,0,VALID,100,VALID,199.712,VALID,18.7008,VALID,153,VALID,0.520419,
2009-04-27, 07:15:00,VALID,918.606,VALID,0,VALID,100,VALID,203.278,VALID,18.632,VALID,153,VALID,0.357422,
2009-04-27, 07:16:00,VALID,918.608,VALID,0,VALID,100,VALID,207.302,VALID,18.6343,VALID,147,VALID,0.210764,
2009-04-27, 07:17:00,VALID,918.593,VALID,0,VALID,100,VALID,211.632,VALID,18.6338,VALID,148,VALID,0.14881,
2009-04-27, 07:18:00,VALID,918.583,VALID,0,VALID,100,VALID,215.691,VALID,18.6825,VALID,147,VALID,0.0310595,
2009-04-27, 07:19:00,VALID,918.578,VALID,0,VALID,100,VALID,219.375,VALID,18.7421,VALID,149,VALID,0.11109,
2009-04-27, 07:20:00,VALID,918.587,VALID,0,VALID,100,VALID,223.111,VALID,18.8227,VALID,146,VALID,0.109197,
2009-04-27, 07:21:00,VALID,918.603,VALID,0,VALID,100,VALID,227.22,VALID,18.8978,VALID,138,VALID,0.00230824,
2009-04-27, 07:22:00,VALID,918.618,VALID,0,VALID,100,VALID,231.109,VALID,19.0143,VALID,150,VALID,0.0466933,
2009-04-27, 07:23:00,VALID,918.611,VALID,0,VALID,100,VALID,234.641,VALID,19.066,VALID,154,VALID,0.124467,
2009-04-27, 07:24:00,VALID,918.616,VALID,0,VALID,100,VALID,238.513,VALID,19.1316,VALID,161,VALID,0.0996094,
2009-04-27, 07:25:00,VALID,918.621,VALID,0,VALID,100,VALID,242.113,VALID,19.1702,VALID,167,VALID,0.15298,
2009-04-27, 07:26:00,VALID,918.621,VALID,0,VALID,100,VALID,245.781,VALID,19.2476,VALID,164,VALID,0.00181686,
2009-04-27, 07:27:00,VALID,918.621,VALID,0,VALID,100,VALID,249.296,VALID,19.3035,VALID,168,VALID,0.000744048,
2009-04-27, 07:28:00,VALID,918.642,VALID,0,VALID,100,VALID,252.811,VALID,19.3294,VALID,165,VALID,0.00763081,
2009-04-27, 07:29:00,VALID,918.644,VALID,0,VALID,100,VALID,256.597,VALID,19.3681,VALID,154,VALID,0.00999273,
2009-04-27, 07:30:00,VALID,918.655,VALID,0,VALID,100,VALID,260.418,VALID,19.3781,VALID,154,VALID,0,
2009-04-27, 07:31:00,VALID,918.684,VALID,0,VALID,100,VALID,264.018,VALID,19.4919,VALID,164,VALID,0,
2009-04-27, 07:32:00,VALID,918.718,VALID,0,VALID,100,VALID,267.907,VALID,19.5308,VALID,164,VALID,0,
2009-04-27, 07:33:00,VALID,918.733,VALID,0,VALID,100,VALID,271.761,VALID,19.6349,VALID,155,VALID,0.0750762,
2009-04-27, 07:34:00,VALID,918.761,VALID,0,VALID,100,VALID,275.412,VALID,19.7188,VALID,158,VALID,0,
2009-04-27, 07:35:00,VALID,918.773,VALID,0,VALID,100,VALID,279.589,VALID,19.735,VALID,145,VALID,0,
2009-04-27, 07:36:00,VALID,918.788,VALID,0,VALID,100,VALID,283.546,VALID,19.7807,VALID,144,VALID,0,
2009-04-27, 07:37:00,VALID,918.81,VALID,0,VALID,100,VALID,287.231,VALID,19.8456,VALID,134,VALID,0,
2009-04-27, 07:38:00,VALID,918.839,VALID,0,VALID,100,VALID,291.119,VALID,19.9242,VALID,100,VALID,0,
2009-04-27, 07:39:00,VALID,918.855,VALID,0,VALID,100,VALID,295.059,VALID,20.0572,VALID,75,VALID,0.106889,
2009-04-27, 07:40:00,VALID,918.881,VALID,0,VALID,100,VALID,298.642,VALID,20.0927,VALID,65,VALID,0.00648271,
2009-04-27, 07:41:00,VALID,918.879,VALID,0,VALID,100,VALID,302.632,VALID,20.1384,VALID,116,VALID,0,
2009-04-27, 07:42:00,VALID,918.885,VALID,0,VALID,100,VALID,306.419,VALID,20.2122,VALID,57,VALID,0.00133384,
2009-04-27, 07:43:00,VALID,918.9,VALID,0,VALID,99.6501,VALID,310.376,VALID,20.2414,VALID,89,VALID,0,
2009-04-27, 07:44:00,VALID,918.898,VALID,0,VALID,98.7528,VALID,314.706,VALID,20.1611,VALID,112,VALID,0.458147,
2009-04-27, 07:45:00,VALID,918.894,VALID,0,VALID,99.2564,VALID,318.594,VALID,20.2317,VALID,103,VALID,0.333031,
2009-04-27, 07:46:00,VALID,918.898,VALID,0,VALID,99.5677,VALID,322.296,VALID,20.4075,VALID,111,VALID,0.152248,
2009-04-27, 07:47:00,VALID,918.896,VALID,0,VALID,98.2849,VALID,326.338,VALID,20.4175,VALID,119,VALID,0,
2009-04-27, 07:48:00,VALID,918.899,VALID,0,VALID,97.7699,VALID,330.226,VALID,20.388,VALID,123,VALID,0,
2009-04-27, 07:49:00,VALID,918.89,VALID,0,VALID,97.1862,VALID,333.792,VALID,20.4307,VALID,138,VALID,0,
2009-04-27, 07:50:00,VALID,918.885,VALID,0,VALID,97.0311,VALID,337.341,VALID,20.4464,VALID,139,VALID,0,
2009-04-27, 07:51:00,VALID,918.862,VALID,0,VALID,97.2065,VALID,341.264,VALID,20.537,VALID,123,VALID,0,
2009-04-27, 07:52:00,VALID,918.864,VALID,0,VALID,97.9809,VALID,345.084,VALID,20.7504,VALID,117,VALID,0.213542,
2009-04-27, 07:53:00,VALID,918.873,VALID,0,VALID,96.057,VALID,348.735,VALID,20.7367,VALID,113,VALID,0.527616,
2009-04-27, 07:54:00,VALID,918.884,VALID,0,VALID,96.5364,VALID,352.454,VALID,20.8511,VALID,113,VALID,0.164971,
2009-04-27, 07:55:00,VALID,918.883,VALID,0,VALID,96.4461,VALID,356.224,VALID,21.0366,VALID,107,VALID,0.290305,
2009-04-27, 07:56:00,VALID,918.893,VALID,0,VALID,95.1287,VALID,359.841,VALID,21.0948,VALID,132,VALID,0.281072,
2009-04-27, 07:57:00,VALID,918.888,VALID,0,VALID,94.7129,VALID,363.611,VALID,21.1432,VALID,130,VALID,0,
2009-04-27, 07:58:00,VALID,918.902,VALID,0,VALID,93.983,VALID,367.278,VALID,21.1437,VALID,131,VALID,0,
2009-04-27, 07:59:00,VALID,918.889,VALID,0,VALID,93.983,VALID,371.031,VALID,21.1499,VALID,121,VALID,0,
2009-04-27, 08:00:00,VALID,918.893,VALID,0,VALID,94.7307,VALID,374.597,VALID,21.2671,VALID,133,VALID,0.0533203,
2009-04-27, 08:01:00,VALID,918.887,VALID,0,VALID,94.423,VALID,378.231,VALID,21.3839,VALID,136,VALID,0.54851,
2009-04-27, 08:02:00,VALID,918.879,VALID,0,VALID,93.8724,VALID,381.695,VALID,21.4976,VALID,117,VALID,0.466704,
2009-04-27, 08:03:00,VALID,918.884,VALID,0,VALID,92.8259,VALID,385.261,VALID,21.5692,VALID,140,VALID,0,
2009-04-27, 08:04:00,VALID,918.878,VALID,0,VALID,92.9607,VALID,388.997,VALID,21.6796,VALID,118,VALID,0,
2009-04-27, 08:05:00,VALID,918.874,VALID,0,VALID,92.8195,VALID,392.325,VALID,21.7808,VALID,117,VALID,0.0829613,
2009-04-27, 08:06:00,VALID,918.877,VALID,0,VALID,92.775,VALID,395.416,VALID,21.8617,VALID,97,VALID,0.224466,
2009-04-27, 08:07:00,VALID,918.885,VALID,0,VALID,92.8068,VALID,398.625,VALID,22.0736,VALID,51,VALID,0.522195,
2009-04-27, 08:08:00,VALID,918.887,VALID,0,VALID,90.6412,VALID,402.072,VALID,22.1767,VALID,40,VALID,0,
2009-04-27, 08:09:00,VALID,918.917,VALID,0,VALID,91.0685,VALID,406.063,VALID,22.4557,VALID,54,VALID,0,
2009-04-27, 08:10:00,VALID,918.921,VALID,0,VALID,89.2374,VALID,409.883,VALID,22.5628,VALID,121,VALID,0.128634,
2009-04-27, 08:11:00,VALID,918.928,VALID,0,VALID,88.7326,VALID,413.11,VALID,22.515,VALID,112,VALID,0.0491616,
2009-04-27, 08:12:00,VALID,918.941,VALID,0,VALID,89.0505,VALID,416.03,VALID,22.4982,VALID,126,VALID,0,
2009-04-27, 08:13:00,VALID,918.948,VALID,0,VALID,89.5655,VALID,418.951,VALID,22.5737,VALID,164,VALID,0.792151,
2009-04-27, 08:14:00,VALID,918.97,VALID,0,VALID,88.7008,VALID,421.787,VALID,22.5049,VALID,141,VALID,0.0523256,
2009-04-27, 08:15:00,VALID,918.985,VALID,0,VALID,89.5159,VALID,424.521,VALID,22.499,VALID,174,VALID,0.035061,
2009-04-27, 08:16:00,VALID,918.982,VALID,0,VALID,89.348,VALID,428.07,VALID,22.5439,VALID,176,VALID,0.465376,
2009-04-27, 08:17:00,VALID,918.981,VALID,0,VALID,89.5489,VALID,431.381,VALID,22.4403,VALID,173,VALID,0.81543,
2009-04-27, 08:18:00,VALID,918.988,VALID,0,VALID,90.331,VALID,434.913,VALID,22.3688,VALID,176,VALID,0.674419,
2009-04-27, 08:19:00,VALID,918.983,VALID,0,VALID,90.5497,VALID,438.071,VALID,22.3529,VALID,176,VALID,0.505716,
2009-04-27, 08:20:00,VALID,918.978,VALID,0,VALID,90.4836,VALID,441.298,VALID,22.2484,VALID,167,VALID,0.596354,
2009-04-27, 08:21:00,VALID,918.964,VALID,0,VALID,91.2821,VALID,443.879,VALID,22.2384,VALID,158,VALID,0.0893895,
2009-04-27, 08:22:00,VALID,918.962,VALID,0,VALID,90.8422,VALID,446.103,VALID,22.2552,VALID,156,VALID,0,
2009-04-27, 08:23:00,VALID,918.959,VALID,0,VALID,91.4131,VALID,445.475,VALID,22.2882,VALID,155,VALID,0.0284091,
2009-04-27, 08:24:00,VALID,918.961,VALID,0,VALID,91.8989,VALID,449.975,VALID,22.4311,VALID,178,VALID,0.106399,
2009-04-27, 08:25:00,VALID,918.966,VALID,0,VALID,90.907,VALID,446.681,VALID,22.5967,VALID,174,VALID,0,
2009-04-27, 08:26:00,VALID,918.98,VALID,0,VALID,90.3462,VALID,443.268,VALID,22.7328,VALID,164,VALID,0.00111607,
2009-04-27, 08:27:00,VALID,918.977,VALID,0,VALID,90.0156,VALID,456.513,VALID,22.8822,VALID,187,VALID,0.0718006,
2009-04-27, 08:28:00,VALID,918.982,VALID,0,VALID,89.0784,VALID,466.243,VALID,23.0024,VALID,182,VALID,0,
2009-04-27, 08:29:00,VALID,918.982,VALID,0,VALID,88.3142,VALID,469.146,VALID,23.1424,VALID,185,VALID,0.219105,
2009-04-27, 08:30:00,VALID,918.974,VALID,0,VALID,88.0484,VALID,471.846,VALID,23.2596,VALID,169,VALID,0.0671074,
2009-04-27, 08:31:00,VALID,918.982,VALID,0,VALID,88.0421,VALID,474.529,VALID,23.3665,VALID,167,VALID,0.0430596,
2009-04-27, 08:32:00,VALID,918.973,VALID,0,VALID,86.6293,VALID,479.08,VALID,23.373,VALID,177,VALID,0.0396205,
2009-04-27, 08:33:00,VALID,918.985,VALID,0,VALID,86.1894,VALID,483.393,VALID,23.3727,VALID,171,VALID,0.535342,
2009-04-27, 08:34:00,VALID,918.972,VALID,0,VALID,86.361,VALID,486.501,VALID,23.4253,VALID,175,VALID,0.426339,
2009-04-27, 08:35:00,VALID,918.968,VALID,0,VALID,86.2402,VALID,490.016,VALID,23.536,VALID,184,VALID,0.0826671,
2009-04-27, 08:36:00,VALID,918.965,VALID,0,VALID,85.1212,VALID,494.108,VALID,23.614,VALID,155,VALID,0,
2009-04-27, 08:37:00,VALID,918.969,VALID,0,VALID,84.4485,VALID,499.101,VALID,23.7014,VALID,186,VALID,0,
2009-04-27, 08:38:00,VALID,918.965,VALID,0,VALID,83.6436,VALID,503.193,VALID,23.8343,VALID,189,VALID,0.248884,
2009-04-27, 08:39:00,VALID,918.968,VALID,0,VALID,83.8674,VALID,507.2,VALID,23.9344,VALID,122,VALID,0.361235,
2009-04-27, 08:40:00,VALID,918.978,VALID,0,VALID,82.9061,VALID,510.189,VALID,23.8281,VALID,125,VALID,0.273983,
2009-04-27, 08:41:00,VALID,918.966,VALID,0,VALID,83.1299,VALID,513.28,VALID,23.8311,VALID,125,VALID,0,
2009-04-27, 08:42:00,VALID,918.971,VALID,0,VALID,82.7471,VALID,516.387,VALID,24.0825,VALID,134,VALID,0.185764,
2009-04-27, 08:43:00,VALID,918.98,VALID,0,VALID,80.7838,VALID,519.478,VALID,24.2115,VALID,169,VALID,0.0046875,
2009-04-27, 08:44:00,VALID,918.997,VALID,0,VALID,81.2822,VALID,522.84,VALID,24.2901,VALID,77,VALID,0,
2009-04-27, 08:45:00,VALID,919.007,VALID,0,VALID,80.1645,VALID,526.321,VALID,24.4588,VALID,54,VALID,0.333576,
2009-04-27, 08:46:00,VALID,919.008,VALID,0,VALID,79.3062,VALID,529.072,VALID,24.5267,VALID,29,VALID,0.320117,
2009-04-27, 08:47:00,VALID,919.013,VALID,0,VALID,80.2738,VALID,532.57,VALID,24.6924,VALID,50,VALID,0.593568,
2009-04-27, 08:48:00,VALID,919.024,VALID,0,VALID,80.092,VALID,535.49,VALID,24.7545,VALID,174,VALID,0.346875,
2009-04-27, 08:49:00,VALID,919.03,VALID,0,VALID,80.2853,VALID,539.039,VALID,24.9238,VALID,284,VALID,0.635975,
2009-04-27, 08:50:00,VALID,919.028,VALID,0,VALID,80.5778,VALID,542.419,VALID,25.0051,VALID,312,VALID,0.133008,
2009-04-27, 08:51:00,VALID,919.036,VALID,0,VALID,79.0099,VALID,545.543,VALID,25.0083,VALID,268,VALID,0.753906,
2009-04-27, 08:52:00,VALID,919.046,VALID,0,VALID,80.2484,VALID,548.396,VALID,24.8777,VALID,311,VALID,0.319222,
2009-04-27, 08:53:00,VALID,919.051,VALID,0,VALID,80.2637,VALID,551.945,VALID,24.8107,VALID,261,VALID,0.201029,
2009-04-27, 08:54:00,VALID,919.064,VALID,0,VALID,78.3626,VALID,554.9,VALID,24.7616,VALID,322,VALID,0.52468,
2009-04-27, 08:55:00,VALID,919.063,VALID,0,VALID,79.2655,VALID,558.466,VALID,24.7814,VALID,17,VALID,0.791726,
2009-04-27, 08:56:00,VALID,919.071,VALID,0,VALID,75.6249,VALID,561.25,VALID,24.8269,VALID,27,VALID,0.609738,
2009-04-27, 08:57:00,VALID,919.085,VALID,0,VALID,73.6043,VALID,564.154,VALID,24.9212,VALID,73,VALID,0.0239702,
2009-04-27, 08:58:00,VALID,919.081,VALID,0,VALID,73.6933,VALID,567.567,VALID,25.0843,VALID,80,VALID,0,
2009-04-27, 08:59:00,VALID,919.073,VALID,0,VALID,73.6221,VALID,570.08,VALID,25.3701,VALID,55,VALID,0.242932,
2009-04-27, 09:00:00,VALID,919.072,VALID,0,VALID,73.1745,VALID,572.339,VALID,25.5654,VALID,2,VALID,0.924665,
2009-04-27, 09:01:00,VALID,919.094,VALID,0,VALID,74.3138,VALID,575.752,VALID,25.5615,VALID,266,VALID,0.734375,
2009-04-27, 09:02:00,VALID,919.091,VALID,0,VALID,74.1752,VALID,578.52,VALID,25.4153,VALID,295,VALID,0.731517,
2009-04-27, 09:03:00,VALID,919.096,VALID,0,VALID,74.6762,VALID,581.39,VALID,25.2433,VALID,274,VALID,0.936198,
2009-04-27, 09:04:00,VALID,919.112,VALID,0,VALID,73.912,VALID,584.769,VALID,25.0915,VALID,313,VALID,0.533203,
2009-04-27, 09:05:00,VALID,919.113,VALID,0,VALID,74.2248,VALID,588.522,VALID,25.0226,VALID,288,VALID,0.433333,
2009-04-27, 09:06:00,VALID,919.132,VALID,0,VALID,73.6221,VALID,591.001,VALID,25.0164,VALID,266,VALID,0.668423,
2009-04-27, 09:07:00,VALID,919.131,VALID,0,VALID,73.5941,VALID,594.108,VALID,24.9716,VALID,286,VALID,0.202553,
2009-04-27, 09:08:00,VALID,919.139,VALID,0,VALID,73.3093,VALID,597.046,VALID,25.0704,VALID,262,VALID,0.199777,
2009-04-27, 09:09:00,VALID,919.12,VALID,0,VALID,73.0575,VALID,599.967,VALID,25.2459,VALID,284,VALID,0.0576637,
2009-04-27, 09:10:00,VALID,919.12,VALID,0,VALID,73.3462,VALID,602.395,VALID,25.4208,VALID,285,VALID,0.110417,
2009-04-27, 09:11:00,VALID,919.12,VALID,0,VALID,73.0461,VALID,605.401,VALID,25.4858,VALID,268,VALID,0.59747,
2009-04-27, 09:12:00,VALID,919.112,VALID,0,VALID,73.0473,VALID,608.508,VALID,25.3506,VALID,258,VALID,1.17473,
2009-04-27, 09:13:00,VALID,919.128,VALID,0,VALID,73.6679,VALID,611.361,VALID,25.1051,VALID,264,VALID,1.24019,
2009-04-27, 09:14:00,VALID,919.149,VALID,0,VALID,74.2134,VALID,615.097,VALID,24.9104,VALID,263,VALID,0.699591,
2009-04-27, 09:15:00,VALID,919.146,VALID,0,VALID,75.4112,VALID,617.814,VALID,24.8578,VALID,294,VALID,0.733285,
2009-04-27, 09:16:00,VALID,919.163,VALID,0,VALID,75.8321,VALID,620.564,VALID,24.8941,VALID,11,VALID,0.175305,
2009-04-27, 09:17:00,VALID,919.157,VALID,0,VALID,75.3171,VALID,622.925,VALID,25.0791,VALID,35,VALID,0,
2009-04-27, 09:18:00,VALID,919.15,VALID,0,VALID,74.5809,VALID,625.913,VALID,25.3034,VALID,45,VALID,0.236235,
2009-04-27, 09:19:00,VALID,919.136,VALID,0,VALID,74.174,VALID,628.478,VALID,25.6415,VALID,344,VALID,0.653646,
2009-04-27, 09:20:00,VALID,919.119,VALID,0,VALID,72.7154,VALID,630.991,VALID,25.9309,VALID,308,VALID,0.434524,
2009-04-27, 09:21:00,VALID,919.116,VALID,0,VALID,69.661,VALID,634.302,VALID,26.0317,VALID,249,VALID,0.5,
2009-04-27, 09:22:00,VALID,919.096,VALID,0,VALID,70.5652,VALID,637.868,VALID,26.1285,VALID,252,VALID,0.207508,
2009-04-27, 09:23:00,VALID,919.095,VALID,0,VALID,69.9103,VALID,640.415,VALID,26.19,VALID,263,VALID,0.800781,
2009-04-27, 09:24:00,VALID,919.092,VALID,0,VALID,69.5936,VALID,643.523,VALID,25.9855,VALID,268,VALID,0.712936,
2009-04-27, 09:25:00,VALID,919.099,VALID,0,VALID,70.2307,VALID,645.509,VALID,25.8158,VALID,258,VALID,0.461825,
2009-04-27, 09:26:00,VALID,919.089,VALID,0,VALID,71.1119,VALID,648.073,VALID,25.8479,VALID,293,VALID,0.0333807,
2009-04-27, 09:27:00,VALID,919.084,VALID,0,VALID,71.0662,VALID,650.434,VALID,25.9845,VALID,263,VALID,0.59976,
2009-04-27, 09:28:00,VALID,919.078,VALID,0,VALID,71.22,VALID,653.66,VALID,26.0729,VALID,263,VALID,0.81157,
2009-04-27, 09:29:00,VALID,919.089,VALID,0,VALID,71.5214,VALID,656.649,VALID,25.9754,VALID,257,VALID,0.952097,
2009-04-27, 09:30:00,VALID,919.086,VALID,0,VALID,71.3599,VALID,659.162,VALID,25.8853,VALID,259,VALID,0.501302,
2009-04-27, 09:31:00,VALID,919.085,VALID,0,VALID,71.2963,VALID,661.166,VALID,25.8915,VALID,275,VALID,0.657393,
2009-04-27, 09:32:00,VALID,919.071,VALID,0,VALID,71.4642,VALID,662.983,VALID,25.8883,VALID,272,VALID,0.305959,
2009-04-27, 09:33:00,VALID,919.071,VALID,0,VALID,71.4743,VALID,665.411,VALID,25.8431,VALID,261,VALID,0.668229,
2009-04-27, 09:34:00,VALID,919.072,VALID,0,VALID,71.6765,VALID,667.822,VALID,25.7641,VALID,276,VALID,0.277158,
2009-04-27, 09:35:00,VALID,919.084,VALID,0,VALID,71.9385,VALID,671.235,VALID,25.82,VALID,282,VALID,0.307106,
2009-04-27, 09:36:00,VALID,919.092,VALID,0,VALID,69.4461,VALID,675.209,VALID,25.8853,VALID,216,VALID,0.279167,
2009-04-27, 09:37:00,VALID,919.097,VALID,0,VALID,69.9548,VALID,677.96,VALID,26.0382,VALID,252,VALID,0.000181686,
2009-04-27, 09:38:00,VALID,919.115,VALID,0,VALID,69.3876,VALID,679.963,VALID,26.2072,VALID,253,VALID,0.713481,
2009-04-27, 09:39:00,VALID,919.128,VALID,0,VALID,71.0344,VALID,681.814,VALID,26.321,VALID,264,VALID,0.239901,
2009-04-27, 09:40:00,VALID,919.124,VALID,0,VALID,70.1137,VALID,684.565,VALID,26.5162,VALID,304,VALID,0.178757,
2009-04-27, 09:41:00,VALID,919.119,VALID,0,VALID,66.8864,VALID,687.231,VALID,26.6658,VALID,316,VALID,0.735085,
2009-04-27, 09:42:00,VALID,919.12,VALID,0,VALID,66.421,VALID,689.575,VALID,26.6397,VALID,337,VALID,0.805575,
2009-04-27, 09:43:00,VALID,919.105,VALID,0,VALID,67.6239,VALID,691.952,VALID,26.5786,VALID,354,VALID,0.878815,
2009-04-27, 09:44:00,VALID,919.105,VALID,0,VALID,67.2666,VALID,693.378,VALID,26.5139,VALID,317,VALID,0.979288,
2009-04-27, 09:45:00,VALID,919.112,VALID,0,VALID,67.9266,VALID,695.959,VALID,26.3412,VALID,297,VALID,0.917597,
2009-04-27, 09:46:00,VALID,919.107,VALID,0,VALID,69.2262,VALID,698.082,VALID,26.1682,VALID,329,VALID,0.773983,
2009-04-27, 09:47:00,VALID,919.117,VALID,0,VALID,69.4754,VALID,701.088,VALID,26.1526,VALID,332,VALID,0.595424,
2009-04-27, 09:48:00,VALID,919.124,VALID,0,VALID,68.5624,VALID,703.04,VALID,26.2794,VALID,291,VALID,0.442894,
2009-04-27, 09:49:00,VALID,919.132,VALID,0,VALID,68.5865,VALID,705.723,VALID,26.2498,VALID,249,VALID,0.00933689,
2009-04-27, 09:50:00,VALID,919.119,VALID,0,VALID,68.6285,VALID,708.763,VALID,26.2014,VALID,269,VALID,0.558685,
2009-04-27, 09:51:00,VALID,919.111,VALID,0,VALID,69.4741,VALID,711.276,VALID,26.2762,VALID,292,VALID,0.199128,
2009-04-27, 09:52:00,VALID,919.112,VALID,0,VALID,69.5898,VALID,714.367,VALID,26.4167,VALID,60,VALID,0.177344,
2009-04-27, 09:53:00,VALID,919.088,VALID,0,VALID,68.3475,VALID,716.523,VALID,26.6411,VALID,153,VALID,0.463763,
2009-04-27, 09:54:00,VALID,919.075,VALID,0,VALID,66.8724,VALID,718.782,VALID,26.8496,VALID,184,VALID,0.62407,
2009-04-27, 09:55:00,VALID,919.068,VALID,0,VALID,66.8597,VALID,721.872,VALID,26.9566,VALID,155,VALID,0.645198,
2009-04-27, 09:56:00,VALID,919.061,VALID,0,VALID,66.2303,VALID,724.453,VALID,26.9595,VALID,159,VALID,0.933222,
2009-04-27, 09:57:00,VALID,919.052,VALID,0,VALID,66.5494,VALID,727,VALID,26.8034,VALID,168,VALID,1.12287,
2009-04-27, 09:58:00,VALID,919.055,VALID,0,VALID,67.0352,VALID,729.14,VALID,26.5077,VALID,137,VALID,0.913336,
2009-04-27, 09:59:00,VALID,919.029,VALID,0,VALID,67.5171,VALID,731.398,VALID,26.1725,VALID,126,VALID,1.0887,
2009-04-27, 10:00:00,VALID,918.999,VALID,0,VALID,69.7043,VALID,733.878,VALID,25.9965,VALID,154,VALID,0.532292,
2009-04-27, 10:01:00,VALID,918.988,VALID,0,VALID,69.4207,VALID,736.476,VALID,25.9718,VALID,131,VALID,0.392912,
2009-04-27, 10:02:00,VALID,918.99,VALID,0,VALID,69.3203,VALID,738.31,VALID,25.7338,VALID,127,VALID,0.189174,
2009-04-27, 10:03:00,VALID,918.984,VALID,0,VALID,70.7572,VALID,739.872,VALID,25.7016,VALID,118,VALID,0.724306,
2009-04-27, 10:04:00,VALID,918.99,VALID,0,VALID,70.8411,VALID,742.521,VALID,25.8382,VALID,116,VALID,0.500762,
2009-04-27, 10:05:00,VALID,918.98,VALID,0,VALID,69.1092,VALID,745.391,VALID,25.9744,VALID,101,VALID,0.539418,
2009-04-27, 10:06:00,VALID,918.983,VALID,0,VALID,70.5868,VALID,746.749,VALID,26.1432,VALID,97,VALID,0.298147,
2009-04-27, 10:07:00,VALID,918.985,VALID,0,VALID,68.8612,VALID,748.94,VALID,26.5048,VALID,205,VALID,0.110828,
2009-04-27, 10:08:00,VALID,918.993,VALID,0,VALID,68.0219,VALID,750.977,VALID,26.8889,VALID,307,VALID,0.3125,
2009-04-27, 10:09:00,VALID,918.979,VALID,0,VALID,67.5057,VALID,752.098,VALID,27.1195,VALID,346,VALID,0.948153,
2009-04-27, 10:10:00,VALID,918.967,VALID,0,VALID,67.9406,VALID,754.119,VALID,27.2211,VALID,16,VALID,1.46615,
2009-04-27, 10:11:00,VALID,918.945,VALID,0,VALID,67.4764,VALID,756.241,VALID,27.4025,VALID,17,VALID,1.08575,
2009-04-27, 10:12:00,VALID,918.94,VALID,0,VALID,68.1059,VALID,759.4,VALID,27.4972,VALID,6,VALID,0.8125,
2009-04-27, 10:13:00,VALID,918.94,VALID,0,VALID,65.9327,VALID,761.2,VALID,27.7969,VALID,2,VALID,0.829397,
2009-04-27, 10:14:00,VALID,918.916,VALID,0,VALID,65.597,VALID,763.169,VALID,27.8291,VALID,25,VALID,1.72443,
2009-04-27, 10:15:00,VALID,918.915,VALID,0,VALID,66.3218,VALID,764.409,VALID,27.6111,VALID,358,VALID,0.84718,
2009-04-27, 10:16:00,VALID,918.915,VALID,0,VALID,66.3879,VALID,766.668,VALID,27.6798,VALID,18,VALID,0.908296,
2009-04-27, 10:17:00,VALID,918.91,VALID,0,VALID,66.304,VALID,768.451,VALID,27.927,VALID,7,VALID,0.793605,
2009-04-27, 10:18:00,VALID,918.926,VALID,0,VALID,64.6204,VALID,770.709,VALID,28.1638,VALID,299,VALID,0.367021,
2009-04-27, 10:19:00,VALID,918.915,VALID,0,VALID,63.7074,VALID,772.594,VALID,28.3598,VALID,210,VALID,0.434896,
2009-04-27, 10:20:00,VALID,918.914,VALID,0,VALID,63.7163,VALID,774.156,VALID,28.4867,VALID,296,VALID,0,
2009-04-27, 10:21:00,VALID,918.896,VALID,0,VALID,63.8358,VALID,776.839,VALID,28.5948,VALID,275,VALID,0.29851,
2009-04-27, 10:22:00,VALID,918.889,VALID,0,VALID,63.111,VALID,778.554,VALID,28.6331,VALID,280,VALID,0.676054,
2009-04-27, 10:23:00,VALID,918.88,VALID,0,VALID,63.2661,VALID,779.437,VALID,28.5163,VALID,248,VALID,0.39444,
2009-04-27, 10:24:00,VALID,918.87,VALID,0,VALID,64.6776,VALID,780.694,VALID,28.4841,VALID,205,VALID,0.71804,
2009-04-27, 10:25:00,VALID,918.866,VALID,0,VALID,64.1995,VALID,782.765,VALID,28.38,VALID,309,VALID,0.798971,
2009-04-27, 10:26:00,VALID,918.855,VALID,0,VALID,65.1189,VALID,784.362,VALID,28.2148,VALID,285,VALID,0.608789,
2009-04-27, 10:27:00,VALID,918.852,VALID,0,VALID,64.5924,VALID,785.448,VALID,28.0322,VALID,262,VALID,0.843395,
2009-04-27, 10:28:00,VALID,918.864,VALID,0,VALID,66.4642,VALID,787.112,VALID,27.8634,VALID,279,VALID,0.28218,
2009-04-27, 10:29:00,VALID,918.863,VALID,0,VALID,67.0339,VALID,788.641,VALID,27.8909,VALID,22,VALID,0.168636,
2009-04-27, 10:30:00,VALID,918.846,VALID,0,VALID,66.2175,VALID,790.695,VALID,27.9765,VALID,71,VALID,0.482013,
2009-04-27, 10:31:00,VALID,918.859,VALID,0,VALID,64.7425,VALID,793.26,VALID,28.0615,VALID,22,VALID,0.667188,
2009-04-27, 10:32:00,VALID,918.867,VALID,0,VALID,64.7565,VALID,794.754,VALID,28.111,VALID,280,VALID,0.563672,
2009-04-27, 10:33:00,VALID,918.855,VALID,0,VALID,64.4907,VALID,797.301,VALID,28.2347,VALID,8,VALID,0.913318,
2009-04-27, 10:34:00,VALID,918.849,VALID,0,VALID,63.8663,VALID,797.573,VALID,28.29,VALID,353,VALID,0.923473,
2009-04-27, 10:35:00,VALID,918.834,VALID,0,VALID,63.6934,VALID,799.39,VALID,28.2509,VALID,6,VALID,0.885121,
2009-04-27, 10:36:00,VALID,918.819,VALID,0,VALID,64.6967,VALID,801.308,VALID,28.3576,VALID,343,VALID,0.450036,